Wind_Speed
8 6 3 1 4 4 2 2 3 1 3 4 4 4 5 8 11 10 10 10 10 10 9 9 9 9 9 9 9 10 10 10 10 10 11 11 11 12 11 11 11 11
14 11 7 6 8 6 4 3 2 2 4 4 4 4 5 8 10 10 10 10 10 11 10 10 10 9 9 9 9 10 10 10 11 11 11 11 11 12 12 13 14 14
20 19 16 13 11 8 7 5 4 3 5 4 3 5 5 7 8 8 9 9 9 9 9 9 9 9 8 8 8 9 9 10 11 12 13 13 13 14 15 16 16 16
22 22 19 14 11 11 9 7 6 4 5 3 2 4 5 5 6 6 7 7 7 7 8 8 8 8 8 8 8 8 8 10 11 13 14 15 15 15 16 16 16 16
23 22 18 14 12 13 11 8 7 4 3 2 1 3 4 4 5 5 5 5 5 6 6 7 7 7 8 8 8 8 7 9 11 12 13 14 15 15 15 15 14 14
24 22 18 13 13 15 12 10 10 6 3 2 2 2 3 4 4 4 4 5 5 5 6 6 6 6 7 8 8 8 8 8 10 10 10 11 12 12 12 12 11 11
24 22 17 13 13 16 14 12 12 8 5 4 5 3 2 2 3 3 4 4 4 4 4 5 5 6 6 7 7 8 8 8 8 8 8 8 8 8 8 8 7 7
23 21 18 14 14 18 18 16 15 11 8 8 7 7 5 4 3 3 3 4 4 4 4 4 4 5 5 5 6 6 6 6 6 6 5 5 5 5 4 5 5 4
22 21 19 17 16 19 20 18 17 14 11 10 10 9 9 7 6 4 4 3 3 4 4 4 4 4 5 5 4 5 5 5 4 4 3 3 2 2 3 3 3 3
19 20 19 17 16 20 21 20 19 15 13 12 12 11 11 9 8 7 6 5 4 4 4 4 4 3 3 3 3 3 4 4 4 4 3 3 2 1 1 1 1 1
15 17 16 16 17 19 20 21 20 16 14 14 14 13 12 11 10 9 7 6 5 5 5 5 5 5 4 4 4 4 3 3 4 4 4 4 4 3 2 1 2 2
12 13 14 15 17 19 19 20 21 19 15 15 15 15 14 13 12 11 10 9 8 7 7 7 7 7 6 6 6 5 5 5 5 5 5 5 5 5 4 4 4 5
9 11 12 14 17 20 20 20 22 22 19 16 16 16 16 16 16 15 15 14 13 11 11 11 9 9 8 7 6 6 7 7 7 7 7 6 6 6 6 7 7 8
8 10 11 12 14 17 18 19 20 22 22 19 18 18 17 17 18 18 18 17 16 15 15 14 14 12 10 9 8 9 10 10 10 9 10 10 10 9 9 9 9 10
8 10 11 11 11 12 13 16 18 19 19 18 18 18 17 17 17 20 22 22 20 18 17 16 16 16 14 12 11 11 12 14 14 14 14 13 13 12 12 11 11 12
6 8 9 10 11 12 12 15 17 18 18 17 17 17 18 18 19 22 24 25 25 23 21 18 17 17 16 15 13 13 14 16 17 17 15 14 13 14 14 15 15 14
4 6 7 9 11 12 13 14 16 17 18 18 18 19 19 20 22 23 25 27 29 29 27 24 21 20 19 18 16 16 17 16 16 16 15 15 14 14 14 14 14 15
4 6 7 9 11 12 13 14 16 17 17 18 19 19 20 21 23 23 24 26 29 32 32 31 28 25 22 20 19 18 17 16 15 15 14 14 13 12 12 12 12 14
5 6 8 9 11 12 14 15 16 16 16 16 16 17 19 20 20 20 21 22 26 28 30 33 33 29 25 22 19 17 16 15 13 12 12 11 11 12 12 12 12 13
2 4 5 7 10 12 13 14 15 15 14 14 15 15 17 16 15 15 15 17 20 22 22 25 28 28 24 21 18 16 13 12 10 10 11 11 11 12 12 12 11 12
2 3 4 5 7 9 11 13 14 14 14 14 15 16 17 16 14 12 12 12 14 16 17 18 20 22 20 17 15 13 10 9 9 9 10 10 10 10 9 9 9 9
5 5 5 6 6 6 7 9 11 11 11 10 11 13 15 16 14 13 12 11 11 14 16 14 13 15 16 15 13 10 8 8 8 8 8 8 8 8 8 7 7 7
8 8 7 6 5 6 6 6 7 7 7 6 7 8 9 11 11 11 11 11 11 12 14 12 10 13 16 13 10 9 8 7 7 7 7 7 7 7 6 6 6 5
10 9 8 7 6 5 6 7 7 7 7 6 6 6 7 8 9 9 9 10 10 10 10 11 12 14 13 11 9 8 7 6 5 5 5 5 5 5 5 5 5 4
9 9 8 8 8 7 7 8 8 9 9 8 8 8 8 9 9 10 10 11 11 10 10 10 11 12 11 10 9 8 7 5 4 4 4 4 4 5 4 4 3 3
9 9 9 10 10 10 9 9 9 10 10 10 10 10 10 11 11 12 12 12 12 11 11 10 11 11 10 9 9 7 6 5 4 3 3 3 4 3 3 3 3 3
Wind_Direction
234 239 230 266 286 269 251 302 310 7 76 76 82 83 101 119 117 107 103 106 111 115 115 116 115 112 111 111 114 128 137 132 124 120 117 117 116 116 118 119 117 117
234 234 233 270 274 249 227 233 216 135 95 82 85 99 119 128 124 118 116 115 116 117 117 115 113 109 107 108 109 114 119 121 120 117 115 117 116 114 115 113 111 111
232 229 234 262 265 228 214 216 195 139 101 83 83 109 125 134 133 128 125 125 126 126 125 121 117 113 109 108 109 112 116 120 122 120 119 118 117 116 115 111 109 108
231 231 240 260 252 218 212 209 191 149 110 88 76 110 120 133 138 135 132 133 135 135 133 129 124 120 115 111 110 112 119 125 124 121 120 118 115 114 113 111 109 108
238 240 247 257 239 213 205 199 193 180 139 118 91 106 107 116 126 130 134 137 140 142 139 134 128 121 115 110 105 108 117 123 122 119 119 117 115 114 113 112 113 112
241 242 242 249 232 209 200 199 199 197 172 182 215 137 105 107 117 123 129 134 139 141 137 133 126 116 112 107 103 105 110 114 112 109 109 108 108 111 112 113 115 115
239 237 236 247 237 211 200 201 208 207 183 196 233 224 164 139 134 132 128 127 132 136 135 132 123 113 111 110 108 108 108 110 106 102 99 93 91 94 99 103 106 109
235 235 238 254 244 214 199 199 211 216 199 199 224 229 215 201 184 164 143 130 125 127 132 134 132 127 123 120 118 114 111 110 105 99 96 86 78 75 74 78 83 86
235 238 245 256 241 212 200 199 207 217 215 205 208 217 220 215 207 199 183 166 151 142 144 147 153 154 149 144 138 133 129 127 122 114 104 95 86 76 67 63 66 66
236 242 247 245 226 207 203 204 209 218 223 213 205 209 215 214 211 209 203 198 191 178 174 177 181 187 185 178 169 160 159 157 154 152 146 141 138 121 85 42 30 37
236 240 240 230 218 211 210 213 217 224 227 220 212 208 210 211 209 207 206 207 208 207 207 206 207 212 215 213 205 193 192 195 191 187 184 181 175 170 180 243 293 300
234 237 236 227 219 217 220 225 229 230 231 230 222 214 213 214 210 207 208 210 214 221 226 227 225 223 225 227 224 219 214 212 216 215 212 212 205 198 203 212 227 250
231 236 239 233 224 223 230 238 239 234 234 238 236 230 226 224 221 218 217 218 220 226 233 237 236 234 236 240 242 240 232 224 223 224 228 233 235 238 239 236 240 248
228 236 243 242 234 232 236 238 237 234 237 244 250 249 244 239 235 231 229 229 229 232 238 243 243 239 235 236 244 252 251 246 243 243 247 249 250 255 257 257 261 261
225 233 242 249 249 246 240 235 234 235 241 249 254 254 252 250 249 243 238 235 236 238 241 244 244 238 230 230 241 255 257 253 253 258 263 263 262 262 261 263 268 263
209 221 234 248 256 258 251 242 240 243 250 255 255 253 253 253 252 248 242 239 240 242 242 242 240 235 230 232 245 262 267 262 261 263 264 263 263 264 263 266 269 265
203 213 227 240 249 255 255 252 252 253 257 259 256 252 252 253 253 251 249 246 243 242 241 242 242 238 237 241 252 266 271 270 267 264 261 260 261 264 265 265 264 261
242 232 234 238 242 246 247 250 253 255 256 256 254 250 250 253 254 254 254 251 246 242 241 242 242 242 247 252 256 262 266 268 266 262 259 259 260 262 263 261 257 253
263 256 250 244 242 243 241 241 244 247 247 245 243 244 246 249 251 252 251 251 248 245 245 245 244 245 251 256 255 257 261 262 259 257 258 259 260 261 261 257 254 252
279 278 273 260 250 244 239 237 238 240 240 238 237 239 241 243 245 245 245 246 245 244 245 244 242 242 247 250 247 245 247 247 249 254 257 257 256 256 256 256 256 257
335 333 322 305 283 259 242 236 237 240 242 243 244 242 239 236 232 231 234 235 234 233 232 233 236 236 235 230 224 223 227 236 247 253 254 253 253 250 252 255 257 260
309 312 316 320 317 297 263 243 241 246 248 249 247 242 235 231 226 223 224 222 220 222 224 228 231 222 207 199 201 211 226 239 244 248 250 250 247 245 246 251 257 261
281 288 289 288 296 305 295 270 255 250 249 249 247 238 227 220 214 211 211 207 204 210 213 209 194 182 181 186 199 214 229 237 236 240 244 241 238 240 241 245 250 252
272 274 273 266 262 271 280 277 268 257 247 239 232 224 214 201 191 187 187 186 188 195 199 189 176 175 182 193 204 215 224 227 223 223 225 227 232 234 234 236 237 240
265 262 259 253 248 247 251 258 261 259 252 239 223 212 208 197 185 182 183 183 185 189 189 184 180 183 191 197 202 207 207 201 204 212 213 220 228 230 233 242 251 265
255 252 245 238 239 241 237 238 247 250 246 237 224 212 206 200 195 193 194 194 194 193 189 188 188 189 193 195 194 192 187 185 192 204 210 219 227 233 248 264 276 290
Height
1540 1542 1542 1541 1541 1541 1542 1544 1545 1545 1545 1545 1544 1545 1545 1546 1547 1547 1547 1548 1548 1549 1550 1550 1550 1551 1551 1551 1551 1552 1552 1553 1553 1553 1554 1554 1555 1555 1556 1557 1558 1559
1537 1539 1541 1541 1541 1542 1542 1543 1544 1544 1544 1544 1544 1545 1546 1546 1547 1547 1548 1548 1549 1550 1550 1551 1551 1551 1552 1552 1552 1553 1553 1554 1554 1554 1555 1555 1555 1556 1557 1558 1558 1559
1534 1536 1538 1539 1540 1541 1541 1542 1543 1542 1543 1544 1545 1545 1546 1547 1547 1548 1548 1549 1549 1550 1551 1551 1552 1552 1552 1553 1553 1554 1554 1554 1555 1555 1555 1556 1556 1557 1558 1559 1559 1560
1532 1534 1535 1538 1540 1540 1541 1541 1542 1542 1542 1543 1545 1545 1546 1547 1548 1548 1549 1549 1550 1551 1551 1552 1552 1552 1553 1553 1554 1554 1555 1555 1556 1556 1556 1557 1557 1558 1559 1560 1560 1561
1531 1533 1534 1536 1538 1539 1540 1541 1541 1541 1542 1543 1545 1545 1546 1547 1548 1549 1550 1550 1551 1551 1552 1552 1553 1553 1554 1554 1555 1555 1556 1556 1557 1557 1557 1558 1558 1559 1560 1560 1561 1562
1530 1532 1533 1535 1536 1538 1539 1540 1541 1541 1542 1543 1544 1545 1546 1547 1548 1549 1550 1550 1551 1552 1552 1553 1553 1554 1554 1555 1555 1556 1557 1557 1558 1558 1559 1559 1559 1560 1560 1561 1562 1562
1528 1531 1532 1534 1535 1537 1538 1538 1540 1541 1541 1542 1544 1544 1545 1547 1548 1549 1550 1551 1551 1552 1552 1553 1553 1554 1555 1555 1556 1556 1557 1558 1558 1559 1559 1560 1561 1561 1562 1562 1563 1563
1527 1529 1531 1532 1534 1535 1536 1537 1538 1540 1540 1542 1543 1544 1545 1546 1547 1549 1549 1550 1551 1552 1552 1553 1554 1554 1555 1556 1556 1557 1557 1558 1559 1559 1560 1561 1561 1562 1562 1563 1563 1563
1526 1528 1529 1530 1532 1533 1534 1535 1537 1539 1540 1541 1542 1543 1545 1546 1547 1548 1549 1550 1550 1551 1552 1553 1554 1554 1555 1556 1556 1557 1557 1558 1558 1559 1560 1560 1561 1562 1562 1563 1563 1564
1525 1526 1528 1529 1530 1532 1533 1534 1535 1537 1539 1540 1541 1543 1544 1545 1546 1547 1548 1549 1550 1550 1551 1552 1553 1554 1555 1555 1556 1556 1557 1557 1558 1558 1559 1559 1560 1561 1562 1563 1563 1564
1523 1525 1526 1527 1529 1531 1532 1533 1534 1536 1538 1539 1540 1541 1543 1544 1546 1547 1548 1549 1550 1550 1551 1551 1552 1553 1554 1555 1555 1556 1556 1557 1557 1558 1558 1558 1559 1559 1560 1561 1562 1563
1521 1523 1524 1525 1528 1529 1531 1532 1533 1535 1536 1538 1539 1540 1542 1543 1545 1546 1546 1547 1548 1549 1550 1550 1551 1552 1553 1554 1555 1555 1555 1556 1556 1557 1558 1558 1559 1559 1559 1560 1560 1561
1520 1521 1522 1523 1526 1528 1529 1530 1532 1533 1535 1536 1537 1538 1540 1542 1543 1544 1544 1545 1547 1548 1548 1549 1550 1551 1552 1553 1554 1554 1555 1555 1555 1556 1557 1558 1558 1559 1559 1559 1559 1560
1520 1521 1521 1522 1524 1526 1527 1528 1529 1531 1533 1534 1536 1537 1538 1540 1541 1542 1543 1544 1545 1546 1547 1548 1549 1550 1551 1552 1553 1553 1554 1554 1554 1555 1556 1557 1558 1558 1559 1558 1558 1558
1519 1520 1520 1521 1522 1524 1525 1526 1528 1530 1531 1533 1534 1535 1536 1538 1539 1540 1540 1541 1542 1544 1546 1547 1548 1548 1549 1550 1551 1551 1552 1552 1553 1554 1555 1555 1556 1557 1557 1557 1557 1557
1518 1519 1519 1520 1521 1523 1524 1525 1527 1528 1529 1530 1531 1533 1534 1535 1535 1536 1537 1538 1539 1541 1543 1544 1545 1546 1547 1548 1549 1549 1550 1551 1551 1552 1552 1553 1554 1554 1555 1555 1555 1554
1517 1518 1519 1520 1521 1522 1523 1524 1525 1526 1526 1527 1528 1530 1530 1531 1532 1532 1533 1535 1536 1538 1540 1541 1542 1543 1544 1545 1546 1547 1548 1549 1549 1550 1550 1550 1551 1552 1552 1552 1552 1552
1516 1517 1518 1519 1520 1521 1521 1522 1523 1523 1524 1525 1526 1527 1527 1528 1528 1529 1530 1531 1532 1534 1536 1537 1539 1540 1542 1544 1545 1546 1547 1547 1547 1547 1547 1548 1548 1549 1549 1550 1550 1550
1516 1516 1517 1518 1518 1519 1519 1520 1521 1521 1522 1523 1524 1524 1524 1525 1525 1526 1527 1528 1529 1530 1532 1533 1535 1538 1540 1542 1543 1544 1544 1545 1545 1545 1545 1545 1545 1546 1546 1547 1547 1547
1516 1516 1516 1517 1517 1517 1518 1519 1519 1520 1520 1521 1521 1522 1522 1522 1523 1524 1524 1525 1526 1527 1529 1530 1532 1535 1537 1539 1540 1541 1542 1542 1543 1543 1543 1543 1543 1544 1544 1544 1544 1545
1516 1516 1516 1516 1516 1516 1517 1517 1518 1518 1519 1519 1519 1520 1520 1521 1521 1522 1522 1523 1524 1525 1526 1527 1529 1531 1534 1536 1538 1538 1539 1540 1540 1541 1541 1541 1541 1542 1542 1542 1542 1543
1516 1515 1515 1515 1515 1515 1516 1516 1517 1517 1517 1517 1517 1517 1518 1518 1519 1520 1520 1521 1522 1523 1523 1525 1527 1529 1531 1533 1535 1536 1537 1538 1538 1539 1540 1540 1540 1540 1540 1540 1541 1541
1515 1515 1514 1514 1515 1515 1515 1516 1516 1516 1516 1516 1516 1516 1516 1516 1517 1518 1519 1519 1520 1521 1522 1523 1525 1527 1529 1531 1532 1534 1535 1536 1536 1537 1538 1538 1538 1539 1539 1539 1540 1540
1513 1513 1513 1513 1514 1514 1514 1515 1516 1516 1516 1516 1516 1516 1516 1516 1517 1517 1518 1518 1519 1520 1522 1523 1524 1526 1528 1529 1531 1532 1533 1534 1535 1535 1536 1536 1537 1537 1538 1538 1538 1539
1512 1512 1512 1512 1513 1513 1513 1514 1515 1515 1515 1516 1515 1516 1516 1516 1516 1517 1517 1518 1519 1520 1522 1523 1524 1525 1527 1528 1529 1530 1531 1532 1533 1534 1534 1535 1536 1536 1537 1537 1537 1537
1511 1510 1510 1511 1511 1512 1512 1513 1513 1514 1514 1514 1515 1515 1515 1516 1516 1516 1517 1518 1518 1520 1521 1522 1523 1524 1525 1526 1528 1529 1530 1530 1531 1532 1533 1534 1535 1535 1535 1535 1535 1535